Regional Weather Roundup
Issued by NWS Sterling, VA

Home | Current Version | Previous Version | Graphics & Text | Print | Product List | Glossary On
Versions: 1 2 3 4 5 6 7 8 9 10 11 12 13 14 15 16 17 18 19 20 21 22 23 24 25 26 27 28 29 30 31 32 33 34 35 36 37 38 39 40 41 42 43 44 45 46 47 48 49 50
160
ASUS41 KLWX 230210
RWRLWX

REGIONAL WEATHER ROUNDUP
NATIONAL WEATHER SERVICE BALTIMORE MD/WASHINGTON DC
900 PM EST SUN JAN 22 2017

Note: "FAIR" indicates few or no clouds below 12,000 feet
with no significant weather and/or obstructions to visibility.
 TC=TEMPERATURE CELSIUS

 * =Non NWS site. Station does not report precipitation (e.g. rain,
    snow, etc.), thunder, or fog.

DCZ001-MDZ009-015-VAZ040>042-051-053>054-230300-
WASHINGTON METRO

CITY           SKY/WX    TMP DP  RH WIND       PRES   REMARKS
WASHINGTON NAT LGT RAIN  50  50 100 NE10      29.62F FOG
DULLES         CLOUDY    50  48  93 NE7       29.62F
ANDREWS AFB    DRIZZLE   48  48 100 NE8       29.61S FOG
FT BELVOIR     DRIZZLE   50  49  94 VRB3      29.61F
QUANTICO       LGT RAIN  50  50 100 NE9       29.61F VSB 1
COLLEGE PARK*  CLOUDY    48  46  93 NE6       29.63S
LEESBURG*      RAIN      48  48 100 NE8       29.63F
MANASSAS*      CLOUDY   N/A N/A N/A CALM      29.62F FOG
GAITHERSBURG*  CLOUDY    50  46  87 E6        29.67S

$$

MDZ006>007-011-014-230300-
BALTIMORE METRO

CITY           SKY/WX    TMP DP  RH WIND       PRES   REMARKS
BWI AIRPORT    LGT RAIN  49  49 100 E13       29.64S FOG
MD SCIENCE CTR   N/A     51  47  86 MISG      29.65F
MARTIN STATE   LGT RAIN  50  50 100 NE5       29.66F
ANNAPOLIS      CLOUDY    50  48  93 NE7       29.62S FOG
FORT MEADE*    CLOUDY    48  46  93 NE7       29.66R

$$

MDZ012-015-019>023-230300-
MARYLAND EASTERN SHORE

CITY           SKY/WX    TMP DP  RH WIND       PRES   REMARKS
OCEAN CITY     CLOUDY    48  48 100 NE13      29.59F FOG
SALISBURY      CLOUDY    49  49 100 NE13      29.59S FOG
BAY BRIDGE AP* CLOUDY    48  48 100 NE8       29.63S FOG
CAMBRIDGE*     CLOUDY    50  50 100 NE7G17    29.59F
EASTON*        CLOUDY    50  48  93 E10G17    29.66S FOG

$$

MDZ017>025-230300-
SOUTHERN MARYLAND

CITY           SKY/WX    TMP DP  RH WIND       PRES   REMARKS
PATUXENT RIVER CLOUDY    48  48 100 N9        29.59F FOG
ST INIGOES     CLOUDY    49  48  97 NE6       29.58F FOG
LEONARDTOWN*   CLOUDY    46  46 100 CALM      29.62S

$$

MDZ003>005-230300-
NORTH CENTRAL MARYLAND

CITY           SKY/WX    TMP DP  RH WIND       PRES   REMARKS
FREDERICK*     DRIZZLE   45  45 100 N10       29.67
HAGERSTOWN APT LGT RAIN  46  44  93 N8        29.63F FOG
WESTMINSTER*   LGT RAIN  48  48 100 E7        29.64S

$$

MDZ501>502-230300-
WESTERN MARYLAND

CITY           SKY/WX    TMP DP  RH WIND       PRES   REMARKS
OAKLAND*       FOG       41  41 100 E15       29.56S VSB 1/4
CUMBERLAND*    CLOUDY    46  46 100 CALM      29.66S

$$

VAZ025>031-230300-
SHENANDOAH VALLEY

CITY           SKY/WX    TMP DP  RH WIND       PRES   REMARKS
WINCHESTER*    DRIZZLE   43  43 100 N3        29.62S
FRONT ROYAL*   CLOUDY    45  45 100 N3        29.61S
LURAY*         CLOUDY    46  46 100 NE9       29.59F FOG
NEW MARKET*    CLOUDY    46  45  96 N12       29.58F
STAUNTON*      RAIN      46  46  99 NE6       29.59F
WAYNESBORO*    CLOUDY    46  45  96 N5        29.56F

$$

WVZ021-048>050-054>055-230300-
EASTERN WEST VIRGINIA PANHANDLE

CITY           SKY/WX    TMP DP  RH WIND       PRES   REMARKS
MARTINSBURG    LGT RAIN  46  44  93 N9        29.61F FOG
PETERSBURG*    DRIZZLE   47  46  97 N3        29.61S

$$

VAZ036>039-050-230300-
CENTRAL FOOTHILLS

CITY           SKY/WX    TMP DP  RH WIND       PRES   REMARKS
CHARLOTTESVILL LGT RAIN  51  49  92 NE8       29.58F FOG
CULPEPER*      RAIN      50  49  99 CALM      29.61S
ORANGE*        DRIZZLE   50  50 100 CALM      29.62S
GORDONSVILLE*  CLOUDY    49  49 100 NE5       29.60S FOG
WARRENTON*     DRIZZLE   50  47  90 NE6       29.60F

$$

VAZ055>057-230300-
NORTH AND CENTRAL PIEDMONT

CITY           SKY/WX    TMP DP  RH WIND       PRES   REMARKS
FREDERICKSBRG* DRIZZLE   50  50 100 NE5       29.60S
STAFFORD*      DRIZZLE   49  49 100 E7        29.64F

$$

NCZ024-NYZ072-PAZ021-071-VAZ022-071-230300-
OTHER REGIONAL OBSERVATIONS

CITY           SKY/WX    TMP DP  RH WIND       PRES   REMARKS
NEW YORK CITY  CLOUDY    47  41  80 E12G25    29.79R
PHILADELPHIA   CLOUDY    48  46  93 E14       29.70R FOG
PITTSBURGH     CLOUDY    55  48  77 E9        29.54F
ROANOKE        CLOUDY    52  50  93 E7        29.50F
RICHMOND       CLOUDY    49  49 100 NE7       29.57F FOG
RALEIGH        LGT RAIN  54  53  97 E8        29.50R FOG

$$

ANZ530>537-230300-
MARINE OBSERVATIONS

STATION/POSITION TIME  TEMP    WIND        PRES
                       AIR SEA DIR/SP/G
                 (UTC) (F)     (DEG/KT/KT) (MB)
THOMAS PT LIGHT  0100   45 40   20/ 12/ 13   N/A
BALT KEY BRIDGE  0130           50/ 10/ 11 1003.9F
COVE POINT       0130          350/ 12/ 13 1003.2S
LEWISETTA        0130      44   30/  4/  5 1002.0S
SOLOMONS ISLAND  0130      42  330/  4/  5   N/A
PINEY POINT      0130           50/  4/  5   N/A

$$





USA.gov is the U.S. government's official web portal to all federal, state and local government web resources and services.